Voltar ao catálogo

STARLINK-34219

AtivoComunicaçõesVLEO
NORAD 64270·PAYLOAD·🇺🇸 United States

Lançado Jun 4, 2025 de Vandenberg Space Force Base

Loading…

Próximas Passagens (próximas 24 horas)

TLE

AtualizadoSource: CelesTrak SupGP

Época: Sep 14, 2026, 20:51 UTC

1 64270C 25120Q   26257.86923611 -.00015767  00000+0 -46594-3 0  2572
2 64270  53.1575 316.1128 0001140  86.3869  20.9924 15.34392264    11

Acompanhe STARLINK-34219 em tempo real com AllMySat

Download on the App Store